Home > Time Zones > World Clock > Weather > Japan > Tokyo > Past weeks

Flag Weather past 2 weeks in Tokyo, Japan

Now
64 °F

Mild.


Feels Like: 64 °F
Forecast: 61 / 69 °F
Wind: 5 mph from North

Location: Tokyo

Current Time: Oct 31, 2014 at 2:14:26 AM

Latest Report: Oct 31, 2014 at 1:00 AM


Visibility: N/A

Pressure: 30.30 "Hg

Humidity: 70%

Dew point: 54 °F

Location of TokyoLocation

Historic Weather in Tokyo — Graph

°F

Tokyo temperature yesterday

Maximum temperature yesterday: 69 °F (at 1:00 PM)
Minimum temperature yesterday: 54 °F (at 6:00 AM)
Average temperature yesterday: 62 °F

Past Weeks' High & Low Weather Summary

 TemperatureHumidityPressure
High75 °F (Oct 20, 12:00 PM)94% (Oct 27, 5:00 AM)30.40 "Hg (Oct 27, 5:00 AM)
Low54 °F (Oct 30, 6:00 AM)27% (Oct 28, 2:00 PM)29.75 "Hg (Oct 27, 3:00 PM)
Average64 °F65%30.12 "Hg
* Reported Oct 16 1:00 AM — Oct 31 1:00 AM, Tokyo, Weather by CustomWeather, © 2014

Note: Actual official high and low records may vary slightly from our data, if they occured in-between our weather recording intervals... More about our weather records

Advertising

Tokyo weather history for previous 24 hours

 ConditionsComfort  
Time TempWeatherWind HumidityBarometerVisibility
1:00 AM
Oct 31
64 °FMild.5 mph70%30.30 "HgN/A
12:00 AM64 °FMild.6 mph77%30.30 "HgN/A
11:00 PM
Oct 30
62 °FMild.No wind80%30.31 "HgN/A
10:00 PM64 °FMild.3 mph77%30.32 "HgN/A
9:00 PM64 °FPassing clouds.3 mph76%30.32 "Hg9 mi
8:00 PM67 °FMild.5 mph69%30.31 "HgN/A
7:00 PM68 °FMild.6 mph63%30.31 "HgN/A
6:00 PM69 °FOvercast.8 mph61%30.30 "Hg6 mi
5:00 PM69 °FMild.6 mph61%30.29 "HgN/A
4:00 PM69 °FMild.7 mph59%30.28 "HgN/A
3:00 PM69 °FPassing clouds.8 mph57%30.29 "Hg9 mi
2:00 PM69 °FMild.8 mph56%30.29 "HgN/A
1:00 PM69 °FMild.7 mph51%30.30 "HgN/A
11:00 AM66 °FMild.2 mph43%30.35 "HgN/A
10:00 AM60 °FRefreshingly cool.6 mph45%30.38 "HgN/A
9:00 AM57 °FPartly sunny.5 mph50%30.39 "Hg12 mi
8:00 AM55 °FRefreshingly cool.5 mph52%30.40 "HgN/A
7:00 AM54 °FCool.6 mph53%30.38 "HgN/A
6:00 AM54 °FOvercast.5 mph54%30.36 "Hg12 mi
5:00 AM54 °FCool.5 mph52%30.35 "HgN/A
4:00 AM55 °FRefreshingly cool.6 mph55%30.34 "HgN/A
3:00 AM56 °FPassing clouds.5 mph56%30.33 "Hg19 mi
2:00 AM56 °FCool.6 mph63%30.32 "HgN/A
Weather by CustomWeather, © 2014

See weather overviewHow to use our weather pages